Location: Unspecified
(0.0000°N, 0.0000°E)
Time: 14:29:21
(UTC+02:00)

Atlas Centaur 2 - Visible Passes

Search period start: 23 June 2018 00:00
Search period end: 03 July 2018 00:00
Orbit: 459 x 1312 km, 30.4° (Epoch: 22 June)

Date Brightness Start Highest point End Pass type
(mag) Time Alt. Az. Time Alt. Az. Time Alt. Az.
29 Jun 4.4 22:04:32 10° SSW 22:06:04 15° SSW 22:06:04 15° SSW visible
30 Jun 3.9 22:00:20 10° SSW 22:03:36 23° SSW 22:03:36 23° SSW visible
01 Jul 3.2 21:56:16 10° SW 22:01:18 36° S 22:01:18 36° S visible
02 Jul 2.5 21:52:20 10° SW 21:59:10 56° SSE 21:59:10 56° SSE visible
